Poplar Bluff, MO

12:43 PM CDT on October 14, 2019 (GMT -0500)
Poplar Bluff Municipal

Weather History for KPOF - September, 2019

Change the Weather History Date:

Wednesday, September 18, 2019

  Actual Average Record
Temperature  
Mean Temperature 82 °F 69 °F  
Max Temperature 96 °F 81 °F 97 °F (1931)
Min Temperature 69 °F 57 °F 42 °F (1918)
Degree Days  
Heating Degree Days 0 1  
Month to date heating degree days 0 4  
Since 1 July heating degree days 0 4  
Cooling Degree Days 18 5  
Month to date cooling degree days 258 136  
Year to date cooling degree days 1663 1484  
Growing Degree Days 32 (Base 50)    
Moisture  
Dew Point 67 °F    
Average Humidity 69    
Maximum Humidity 90    
Minimum Humidity 33    
Precipitation  
Precipitation 0.00 in 0.08 in 1.80 in (1964)
Month to date precipitation T 2.22  
Year to date precipitation 53.92 33.50  
Sea Level Pressure  
Sea Level Pressure 29.99 in    
Wind  
Wind Speed 3 mph ()    
Max Wind Speed 7 mph    
Max Gust Speed 10 mph    
Visibility 9.6 miles    
Events      
T = Trace of Precipitation, MM = Missing Value Source: Averaged Metar Reports

Daily Weather History Graph

Daily Weather History Graph

Search for Another Location

Airport or City:

Astronomy

Sep. 18, 2019 Rise Set
Actual Time 6:45 AM CDT 7:04 PM CDT
Civil Twilight 6:19 AM CDT 7:30 PM CDT
Nautical Twilight 5:49 AM CDT 8:00 PM CDT
Astronomical Twilight 5:18 AM CDT 8:31 PM CDT
Moon 9:45 PM CDT (9/18) 10:43 AM CDT (9/18)
Length of Visible Light 13h 10m
Length of Day
12h 18m
Waning Gibbous, 82% of the Moon is Illuminated
Sep 18
Waning Gibbous
Sep 21
Last Quarter
Sep 28
New
Oct 5
First Quarter
Oct 13
Full

Hourly Weather History & Observations

Time (CDT) Temp. Heat Index Dew Point Humidity Pressure Visibility Wind Dir Wind Speed Gust Speed Precip Events Conditions
12:53 AM 75.0 °F - 70.0 °F 84% 29.99 in 9.0 mi NE 4.6 mph - N/A   Clear
1:53 AM 75.0 °F - 70.0 °F 84% 30.00 in 10.0 mi NE 3.5 mph - N/A   Clear
2:53 AM 73.0 °F - 69.1 °F 87% 29.99 in 9.0 mi North - - N/A   Clear
3:53 AM 72.0 °F - 68.0 °F 87% 29.99 in 8.0 mi North 3.5 mph - N/A   Clear
4:53 AM 71.1 °F - 66.9 °F 87% 29.99 in 10.0 mi North 3.5 mph - N/A   Clear
5:53 AM 70.0 °F - 66.9 °F 90% 29.99 in 9.0 mi North 3.5 mph - N/A   Clear
6:53 AM 69.1 °F - 66.0 °F 90% 30.01 in 8.0 mi North 3.5 mph - N/A   Clear
7:53 AM 73.0 °F - 66.9 °F 81% 30.03 in 10.0 mi Calm Calm - N/A   Clear
8:53 AM 75.9 °F - 68.0 °F 76% 30.02 in 10.0 mi Variable 4.6 mph - N/A   Clear
9:53 AM 80.1 °F 82.7 °F 68.0 °F 67% 30.03 in 10.0 mi NNE 4.6 mph - N/A   Clear
10:53 AM 84.9 °F 88.2 °F 68.0 °F 57% 30.02 in 10.0 mi Calm Calm - N/A   Clear
11:53 AM 88.0 °F 90.7 °F 66.9 °F 49% 30.02 in 10.0 mi Calm Calm - N/A   Clear
12:53 PM 91.0 °F 95.2 °F 68.0 °F 47% 30.01 in 10.0 mi NW 4.6 mph - N/A   Clear
1:53 PM 93.9 °F 96.1 °F 64.9 °F 38% 30.00 in 10.0 mi WNW 3.5 mph - N/A   Clear
2:53 PM 93.0 °F 94.2 °F 63.0 °F 37% 29.98 in 10.0 mi Calm Calm - N/A   Clear
3:53 PM 93.0 °F 93.0 °F 61.0 °F 34% 29.96 in 10.0 mi East 4.6 mph - N/A   Clear
4:53 PM 93.0 °F 94.2 °F 63.0 °F 37% 29.95 in 10.0 mi NE 5.8 mph - N/A   Clear
5:53 PM 91.0 °F 95.2 °F 68.0 °F 47% 29.95 in 10.0 mi NE 3.5 mph - N/A   Clear
6:53 PM 82.0 °F 86.7 °F 72.0 °F 71% 29.96 in 10.0 mi North - - N/A   Clear
8:53 PM 77.0 °F - 69.1 °F 76% 29.99 in 10.0 mi Calm Calm - N/A   Clear
9:53 PM 75.0 °F - 69.1 °F 82% 29.99 in 9.0 mi Calm Calm - N/A   Clear
10:53 PM 73.0 °F - 69.1 °F 87% 29.99 in 9.0 mi Calm Calm - N/A   Clear
11:53 PM 72.0 °F - 68.0 °F 87% 29.99 in 9.0 mi Calm Calm - N/A   Clear